PSLV R/B, 44862

Orbit data source: Space-Track

PSLV R/B, 44862 is space debris in LEO originally from a launch on Wed, 11 Dec 2019 UTC launched from the Sirharikota (SRI). Debris objects in space refer to the collection of defunct objects orbiting the Earth. Examples of debris include non-operational satellites, rocket bodies, and fragments generated from explosions, collisions, or faulty payload assembly.

Loading next visibility...
Identifier
44862, 2019-089L
Orbit
LEO
Country
Flag of ININ / IND
Related business
Manufacturer
VSSC/LPSC
Mission
Spacecraft
Bus & Motor
PS-4, Unknown motor
Mass
920 kg wet, 920 kg dry
Launch date (UTC)
2019-12-11 (7 years ago)
Launch vehicle
Unknown
Launch site
Sirharikota (SRI)
Object type
Payload
Rocket body
Debris
Shape & HBR
Cyl + Cyl + 2 Nozzle, 1.6 m
Radar Cross Section
3.727 m², Large (>1 m²)

Expand to show TLE details & history
Last TLE update: 20 hours ago

TLE from 20 hours ago
0 PSLV R/B
1 44862U 19089L   26262.93442810  .00025618  00000-0  33885-3 0  9992
2 44862  36.9654 169.8252 0016275 248.0354 111.8677 15.57298871376481
Epoch: 2026-09-19T22:25Z
TLE epoch observation values (Epoch: 2026-09-19T22:25:34.587Z)
Latitude
-0.00002°
Longitude
-165.40478°
Altitude
398.701 km
Speed
7.671 km/s
True Right ascension
11h 19m 18s
True Declination
0° 00' 00"
Sunlit
Object was in daylight at epoch
Visualization orbit readout
Latitude
Unknown
Longitude
Unknown
Altitude
Unknown
Speed
Unknown
Apparent Right ascension
Unknown
Apparent Declination
Unknown
Sunlit
N/A
Visualization observer readout
Local Sidereal Time
11:36:18
Azimuth
Unknown
Elevation
Unknown
Doppler factor
Unknown
Orbital elements
Apogee altitude
409.488 km
Perigee altitude
387.43 km
Semi-major axis
6,776.596 km
Eccentricity
0.00163
Inclination
36.9654°
RAAN
169.8252°
Arg. of periapsis
248.0354°
True anomaly
112.04065°
Mean anomaly
111.8677°
Eccentric anomaly
111.95419°
Mean motion
3.89068 °/min
Orbital period
92.53 mins
BSTAR
0.00033885
Loading maneuver chart data...
Computing Atmospheric mass density...
Loading historical data...
Loading historical data...
Loading historical data...
Loading historical data...
Loading historical data...
Loading historical data...
Loading historical data...

Documentation

Showing up to 5 results
|